DW5919 Laille FR current weather conditions

sailwx.info

Wind from 300 at 1 knots gusting 4

Air temperature 22.2° C
Dewpoint 10.4° C

Last reported at 2019-Aug-20 14:07 UTC.
Time now 2019-Aug-20 14:40 UTC

Location: N 47°58' W 001°45'.
View on Google Maps.

See reports from other nearby stations

  
Tides and Currents Weather Stations Pressure Air Temp Water Temp Dewpoint Dewpoint Depression Visibility Wind Speed Wind Dir Waves Ship Positions
date/time (UTC)wind fromknots sea level pressurealtimeterstation pressurevisibilityair tempwater tempwave heightnotes
2019-Aug-20 14:07 300 1 gusting 4 22.2
2019-Aug-20 14:02 305 0 gusting 4 22.8
2019-Aug-20 13:57 324 0 gusting 4 22.8
2019-Aug-20 13:52 355 0 gusting 5 22.2
2019-Aug-20 13:47 315 1 gusting 5 21.7
2019-Aug-20 13:42 310 1 gusting 5 22.8
2019-Aug-20 13:37 312 0 gusting 4 23.3
2019-Aug-20 13:32 292 0 gusting 4 22.8
2019-Aug-20 13:27 056 22.2
2019-Aug-20 13:22 299 21.7
2019-Aug-20 13:17 299 0 gusting 4 21.1
2019-Aug-20 13:12 299 0 gusting 4 21.1
2019-Aug-20 13:07 315 21.1
2019-Aug-20 13:02 311 21.7
2019-Aug-20 12:57 311 21.1
2019-Aug-20 12:52 311 21.1
2019-Aug-20 12:47 308 0 gusting 5 21.1
2019-Aug-20 12:42 308 0 gusting 5 22.2
2019-Aug-20 12:37 336 0 gusting 5 22.2
2019-Aug-20 12:32 309 0 gusting 3 22.2
2019-Aug-20 12:27 005 0 gusting 3 21.7
2019-Aug-20 12:22 325 0 gusting 5 22.2
2019-Aug-20 12:17 319 0 gusting 5 21.7
2019-Aug-20 12:12 319 0 gusting 3 21.7
2019-Aug-20 12:07 294 0 gusting 2 21.1
2019-Aug-20 12:02 076 20.6
2019-Aug-20 11:57 346 20.0
2019-Aug-20 11:52 346 0 gusting 4 20.0
2019-Aug-20 11:47 294 0 gusting 6 20.6
2019-Aug-20 11:42 296 0 gusting 6 21.1
2019-Aug-20 11:37 290 1 gusting 6 21.1
2019-Aug-20 11:32 285 0 gusting 3 20.6
2019-Aug-20 11:27 015 21.1
2019-Aug-20 11:22 317 21.1
2019-Aug-20 11:17 317 21.1
2019-Aug-20 11:12 317 21.1
2019-Aug-20 11:07 203 0 gusting 3 20.6
2019-Aug-20 11:02 312 0 gusting 4 20.6
2019-Aug-20 10:57 311 0 gusting 4 20.6
2019-Aug-20 10:52 346 0 gusting 4 20.6
2019-Aug-20 10:47 307 0 gusting 3 20.6
2019-Aug-20 10:42 215 0 gusting 3 20.6
2019-Aug-20 10:37 298 0 gusting 3 20.0
2019-Aug-20 10:32 331 0 gusting 3 20.6
2019-Aug-20 10:27 293 20.6
2019-Aug-20 10:22 150 20.6
2019-Aug-20 10:17 150 0 gusting 3 20.6
2019-Aug-20 10:12 150 0 gusting 3 20.0
2019-Aug-20 10:07 329 0 gusting 3 20.0
2019-Aug-20 10:02 130 20.0
2019-Aug-20 09:57 327 20.0
2019-Aug-20 09:52 323 20.0
2019-Aug-20 09:47 338 19.4
2019-Aug-20 09:42 338 19.4
2019-Aug-20 09:37 335 19.4
2019-Aug-20 09:32 335 0 gusting 5 18.9
2019-Aug-20 09:27 329 18.9
2019-Aug-20 09:22 316 0 gusting 2 18.9
2019-Aug-20 09:17 316 0 gusting 2 18.3
2019-Aug-20 09:12 316 0 gusting 3 18.3
2019-Aug-20 09:07 326 0 gusting 3 18.3
2019-Aug-20 09:02 017 18.3
2019-Aug-20 08:57 011 17.8
2019-Aug-20 08:52 319 17.8
2019-Aug-20 08:47 346 17.8
2019-Aug-20 08:42 341 17.8
2019-Aug-20 08:37 334 17.2
2019-Aug-20 08:32 334 17.2
2019-Aug-20 08:27 336 0 gusting 4 16.7
2019-Aug-20 08:22 024 0 gusting 4 16.7
2019-Aug-20 08:17 028 16.1
2019-Aug-20 08:12 344 16.1
2019-Aug-20 08:07 339 0 gusting 3 15.6
2019-Aug-20 08:02 327 0 gusting 3 15.6
2019-Aug-20 07:57 324 15.6
2019-Aug-20 07:52 297 15.0
2019-Aug-20 07:47 292 15.0
2019-Aug-20 07:42 292 14.4
2019-Aug-20 07:37 292 14.4
2019-Aug-20 07:32 292 13.9
2019-Aug-20 07:27 292 13.9
2019-Aug-20 07:22 292 13.3
2019-Aug-20 07:17 292 12.8
2019-Aug-20 07:12 292 12.2
2019-Aug-20 07:07 292 12.2
2019-Aug-20 07:02 292 11.7
2019-Aug-20 06:57 292 11.1
2019-Aug-20 06:52 292 11.1
2019-Aug-20 06:47 292 10.6
2019-Aug-20 06:42 292 10.0
2019-Aug-20 06:37 292 9.4
2019-Aug-20 06:32 292 9.4
2019-Aug-20 06:27 292 9.4
2019-Aug-20 06:22 292 8.9
2019-Aug-20 06:17 292 8.3
2019-Aug-20 06:12 292 8.3
2019-Aug-20 06:07 292 8.3
2019-Aug-20 06:02 292 8.3
2019-Aug-20 05:57 292 7.8
2019-Aug-20 05:52 292 7.8
2019-Aug-20 05:47 292 7.8
2019-Aug-20 05:42 292 7.8
2019-Aug-20 05:37 292 7.8
2019-Aug-20 05:32 292 7.8
2019-Aug-20 05:27 292 7.8
2019-Aug-20 05:22 292 7.8
2019-Aug-20 05:17 292 7.8
2019-Aug-20 05:12 292 7.8
2019-Aug-20 05:07 292 7.8
2019-Aug-20 05:02 292 7.8
2019-Aug-20 04:57 292 7.8
2019-Aug-20 04:52 292 7.8
2019-Aug-20 04:47 292 7.8
2019-Aug-20 04:42 292 7.8
2019-Aug-20 04:37 292 7.8
2019-Aug-20 04:32 292 7.8
2019-Aug-20 04:27 292 7.8
2019-Aug-20 04:22 292 7.8
2019-Aug-20 04:17 292 8.3
2019-Aug-20 04:12 292 8.3
2019-Aug-20 04:07 292 8.3
2019-Aug-20 04:02 292 8.3
2019-Aug-20 03:57 292 8.3
2019-Aug-20 03:52 292 8.3
2019-Aug-20 03:47 292 8.3
2019-Aug-20 03:42 292 8.3
2019-Aug-20 03:37 292 8.3
2019-Aug-20 03:32 292 8.3
2019-Aug-20 03:27 292 8.3
2019-Aug-20 03:22 292 8.3
2019-Aug-20 03:17 292 8.9
2019-Aug-20 03:12 292 8.9
2019-Aug-20 03:07 292 8.9
2019-Aug-20 03:02 292 8.9
2019-Aug-20 02:57 292 8.9
2019-Aug-20 02:52 292 8.9
2019-Aug-20 02:47 292 8.9
2019-Aug-20 02:42 292 8.9
2019-Aug-20 02:37 292 8.9
2019-Aug-20 02:32 292 8.9
2019-Aug-20 02:27 292 8.9
2019-Aug-20 02:22 292 9.4
2019-Aug-20 02:17 292 9.4
2019-Aug-20 02:12 292 9.4
2019-Aug-20 02:07 292 9.4
2019-Aug-20 02:02 292 9.4
2019-Aug-20 01:57 292 9.4
2019-Aug-20 01:52 292 9.4
2019-Aug-20 01:47 292 9.4
2019-Aug-20 01:42 292 9.4
2019-Aug-20 01:37 292 9.4
2019-Aug-20 01:32 292 9.4
2019-Aug-20 01:27 292 9.4
2019-Aug-20 01:22 292 9.4
2019-Aug-20 01:17 292 9.4
2019-Aug-20 01:12 292 10.0
2019-Aug-20 01:07 292 10.0
2019-Aug-20 01:02 292 10.0
2019-Aug-20 00:57 292 10.0
2019-Aug-20 00:52 292 10.0
2019-Aug-20 00:47 292 10.0
2019-Aug-20 00:42 292 10.0
2019-Aug-20 00:37 292 10.0
2019-Aug-20 00:32 292 10.0
2019-Aug-20 00:27 292 10.0
2019-Aug-20 00:22 292 10.6
2019-Aug-20 00:17 292 10.6
2019-Aug-20 00:12 292 10.6
2019-Aug-20 00:07 292 10.6
2019-Aug-20 00:02 292 10.6
2019-Aug-19 23:57 292 10.6
2019-Aug-19 23:52 292 11.1
2019-Aug-19 23:47 292 11.1
2019-Aug-19 23:42 292 11.1
2019-Aug-19 23:37 292 10.6
2019-Aug-19 23:32 292 10.6
2019-Aug-19 23:27 292 11.1
2019-Aug-19 23:22 292 11.1
2019-Aug-19 23:17 292 11.1
2019-Aug-19 23:12 292 11.1
2019-Aug-19 23:07 292 11.1
2019-Aug-19 22:57 292 11.7
2019-Aug-19 22:52 292 11.7
2019-Aug-19 22:47 292 11.7
2019-Aug-19 22:42 292 11.7
2019-Aug-19 22:37 292 11.7
2019-Aug-19 22:32 292 12.2
2019-Aug-19 22:27 292 12.2
2019-Aug-19 22:22 292 12.2
2019-Aug-19 22:17 292 12.2
2019-Aug-19 22:12 292 12.2
2019-Aug-19 22:07 292 12.2
2019-Aug-19 22:02 292 12.2
2019-Aug-19 21:57 292 12.8
2019-Aug-19 21:52 292 12.8
2019-Aug-19 21:47 292 12.8
2019-Aug-19 21:42 292 12.8
2019-Aug-19 21:37 292 12.8
2019-Aug-19 21:32 292 13.3
2019-Aug-19 21:27 292 13.3
2019-Aug-19 21:22 292 13.3
2019-Aug-19 21:17 292 13.3
2019-Aug-19 21:12 292 13.3
2019-Aug-19 21:07 292 13.9
2019-Aug-19 21:02 292 13.9
2019-Aug-19 20:57 292 14.4
2019-Aug-19 20:52 292 14.4
2019-Aug-19 20:47 292 14.4
2019-Aug-19 20:42 292 15.0
2019-Aug-19 20:37 292 15.0
2019-Aug-19 20:32 292 15.6
2019-Aug-19 20:27 292 15.6
2019-Aug-19 20:22 292 15.6
2019-Aug-19 20:17 292 16.1
2019-Aug-19 20:12 292 16.1
2019-Aug-19 20:07 292 16.1
2019-Aug-19 20:02 292 16.7
2019-Aug-19 19:57 292 16.7
2019-Aug-19 19:52 292 16.7
2019-Aug-19 19:47 292 16.7
2019-Aug-19 19:42 292 17.2
2019-Aug-19 19:37 292 17.2
2019-Aug-19 19:32 292 17.2
2019-Aug-19 19:27 290 17.8
2019-Aug-19 19:22 290 17.8
2019-Aug-19 19:17 290 17.8
2019-Aug-19 19:12 290 18.3
2019-Aug-19 19:07 290 18.3
2019-Aug-19 19:02 290 18.3
2019-Aug-19 18:57 290 18.9
2019-Aug-19 18:52 290 0 gusting 2 18.9
2019-Aug-19 18:47 290 0 gusting 2 18.9
2019-Aug-19 18:42 290 0 gusting 2 19.4
2019-Aug-19 18:37 290 0 gusting 3 19.4
2019-Aug-19 18:32 290 19.4
2019-Aug-19 18:27 290 0 gusting 4 19.4
2019-Aug-19 18:22 290 0 gusting 5 19.4
2019-Aug-19 18:17 309 0 gusting 5 20.0
2019-Aug-19 18:12 267 0 gusting 5 20.0
2019-Aug-19 18:07 291 0 gusting 5 20.0
2019-Aug-19 18:02 292 20.0
2019-Aug-19 17:57 271 20.6
2019-Aug-19 17:52 298 0 gusting 4 20.6
2019-Aug-19 17:47 298 1 gusting 4 20.6
2019-Aug-19 17:42 296 0 gusting 5 20.6
2019-Aug-19 17:37 292 0 gusting 5 20.6
2019-Aug-19 17:32 292 0 gusting 6 20.6
2019-Aug-19 17:27 275 0 gusting 6 20.6
2019-Aug-19 17:22 275 1 gusting 6 20.6
2019-Aug-19 17:17 300 0 gusting 4 21.1
2019-Aug-19 17:12 286 21.1
2019-Aug-19 17:07 290 1 gusting 6 21.1
2019-Aug-19 17:02 272 1 gusting 5 21.1
2019-Aug-19 16:57 275 21.7
2019-Aug-19 16:52 282 21.7
2019-Aug-19 16:47 298 0 gusting 4 21.7
2019-Aug-19 16:42 291 21.7
2019-Aug-19 16:37 284 21.1
2019-Aug-19 16:32 284 0 gusting 2 21.1
2019-Aug-19 16:27 284 0 gusting 6 21.7
2019-Aug-19 16:22 281 0 gusting 6 21.7
2019-Aug-19 16:17 296 1 gusting 6 21.7
2019-Aug-19 16:12 269 1 gusting 5 21.7
2019-Aug-19 16:07 300 0 gusting 5 21.7
2019-Aug-19 16:02 263 21.7
2019-Aug-19 15:57 281 21.1
2019-Aug-19 15:52 281 0 gusting 2 21.1
2019-Aug-19 15:47 281 21.7
2019-Aug-19 15:42 264 0 gusting 4 21.7
2019-Aug-19 15:37 264 0 gusting 4 21.7
2019-Aug-19 15:32 288 22.2
2019-Aug-19 15:27 265 22.2
2019-Aug-19 15:22 265 22.2
2019-Aug-19 15:17 275 22.8
2019-Aug-19 15:12 275 22.2
2019-Aug-19 15:07 273 0 gusting 4 21.7
2019-Aug-19 15:02 301 21.7
2019-Aug-19 14:57 274 21.7
2019-Aug-19 14:52 298 0 gusting 3 21.7
2019-Aug-19 14:47 271 0 gusting 2 22.2
2019-Aug-19 14:42 268 0 gusting 4 22.8
2019-Aug-19 14:37 246 23.9
2019-Aug-19 14:32 269 0 gusting 4 23.9
2019-Aug-19 14:27 281 23.9
2019-Aug-19 14:22 201 0 gusting 3 23.3
2019-Aug-19 14:17 260 0 gusting 3 22.8
2019-Aug-19 14:12 263 22.8
2019-Aug-19 14:07 265 22.8
2019-Aug-19 14:02 264 23.3
2019-Aug-19 13:57 258 23.3
2019-Aug-19 13:52 257 23.9
2019-Aug-19 13:47 261 24.4
2019-Aug-19 13:42 247 24.4
2019-Aug-19 13:37 267 24.4
2019-Aug-19 13:32 265 23.9
2019-Aug-19 13:27 277 23.9
2019-Aug-19 13:22 255 23.3
2019-Aug-19 13:17 255 22.8
2019-Aug-19 13:12 255 22.8
2019-Aug-19 13:07 232 22.8
2019-Aug-19 13:02 295 22.2
2019-Aug-19 12:57 291 0 gusting 7 21.7
2019-Aug-19 12:52 208 1 gusting 7 21.7
2019-Aug-19 12:47 304 0 gusting 6 21.7
2019-Aug-19 12:42 290 21.7
2019-Aug-19 12:37 273 22.2
2019-Aug-19 12:32 278 22.8
2019-Aug-19 12:27 275 23.3
2019-Aug-19 12:22 302 23.9
2019-Aug-19 12:17 288 23.3
2019-Aug-19 12:12 265 23.3
2019-Aug-19 12:07 223 23.3
2019-Aug-19 12:02 261 23.3
2019-Aug-19 11:57 257 22.8
2019-Aug-19 11:52 257 22.8
2019-Aug-19 11:47 263 0 gusting 4 22.2
2019-Aug-19 11:42 279 0 gusting 4 22.2
2019-Aug-19 11:37 273 0 gusting 3 21.7
2019-Aug-19 11:32 251 0 gusting 4 21.1
2019-Aug-19 11:27 265 0 gusting 4 21.1
2019-Aug-19 11:22 286 1 gusting 5 21.1
2019-Aug-19 11:17 291 1 gusting 5 20.6
2019-Aug-19 11:12 300 1 gusting 5 20.0
2019-Aug-19 11:07 300 0 gusting 3 20.6
2019-Aug-19 11:02 286 20.6
2019-Aug-19 10:57 229 20.0
2019-Aug-19 10:52 278 19.4
2019-Aug-19 10:47 296 0 gusting 5 19.4
2019-Aug-19 10:42 296 0 gusting 6 18.9
2019-Aug-19 10:37 273 1 gusting 6 19.4
2019-Aug-19 10:32 301 0 gusting 6 19.4
2019-Aug-19 10:27 280 20.0
2019-Aug-19 10:22 292 19.4
2019-Aug-19 10:17 257 0 gusting 4 19.4
2019-Aug-19 10:12 257 0 gusting 3 20.0
2019-Aug-19 10:07 241 0 gusting 4 19.4
2019-Aug-19 10:02 290 18.3
2019-Aug-19 09:57 258 0 gusting 4 17.8
2019-Aug-19 09:52 304 0 gusting 4 17.8
2019-Aug-19 09:47 301 1 gusting 5 18.3
2019-Aug-19 09:42 311 1 gusting 5 18.3
2019-Aug-19 09:37 301 0 gusting 4 18.9
2019-Aug-19 09:32 289 0 gusting 2 19.4
2019-Aug-19 09:27 270 19.4
2019-Aug-19 09:22 284 19.4
2019-Aug-19 09:17 292 0 gusting 6 18.9
2019-Aug-19 09:12 302 0 gusting 4 18.3
2019-Aug-19 09:07 254 18.9
2019-Aug-19 09:02 285 0 gusting 4 18.3
2019-Aug-19 08:57 298 0 gusting 5 17.8
2019-Aug-19 08:52 298 1 gusting 5 17.8
2019-Aug-19 08:47 297 1 gusting 5 17.2
2019-Aug-19 08:42 311 0 gusting 3 17.8
2019-Aug-19 08:37 281 17.8
2019-Aug-19 08:32 249 0 gusting 4 17.8
2019-Aug-19 08:27 292 17.2
2019-Aug-19 08:22 286 17.8
2019-Aug-19 08:17 287 0 gusting 5 17.2
2019-Aug-19 08:12 303 0 gusting 5 16.7
2019-Aug-19 08:07 286 17.2
2019-Aug-19 08:02 250 17.2
2019-Aug-19 07:57 279 17.2
2019-Aug-19 07:52 279 17.2
2019-Aug-19 07:47 193 17.2
2019-Aug-19 07:42 193 16.7
2019-Aug-19 07:37 193 16.1
2019-Aug-19 07:32 198 16.1
2019-Aug-19 07:27 198 15.6
2019-Aug-19 07:22 198 15.6
2019-Aug-19 07:17 280 15.0
2019-Aug-19 07:12 280 14.4
2019-Aug-19 07:07 280 14.4
2019-Aug-19 07:02 280 14.4
2019-Aug-19 06:57 280 13.9
2019-Aug-19 06:52 280 13.3
2019-Aug-19 06:47 280 12.8
2019-Aug-19 06:42 280 12.8
2019-Aug-19 06:37 280 12.2
2019-Aug-19 06:32 280 11.7
2019-Aug-19 06:27 280 11.7
2019-Aug-19 06:22 280 11.1
2019-Aug-19 06:17 280 10.6
2019-Aug-19 06:12 280 10.6
2019-Aug-19 06:07 280 10.0
2019-Aug-19 06:02 280 10.0
2019-Aug-19 05:57 280 10.0
2019-Aug-19 05:52 280 9.4
2019-Aug-19 05:47 280 9.4
2019-Aug-19 05:42 280 9.4
2019-Aug-19 05:37 280 9.4
2019-Aug-19 05:32 280 9.4
2019-Aug-19 05:27 280 9.4
2019-Aug-19 05:22 280 9.4
2019-Aug-19 05:17 280 9.4
2019-Aug-19 05:12 280 9.4
2019-Aug-19 05:07 280 9.4
2019-Aug-19 05:02 280 9.4
2019-Aug-19 04:57 280 9.4
2019-Aug-19 04:52 280 9.4
2019-Aug-19 04:47 280 9.4
2019-Aug-19 04:42 280 9.4
2019-Aug-19 04:37 280 9.4
2019-Aug-19 04:32 280 9.4
2019-Aug-19 04:27 280 9.4
2019-Aug-19 04:22 280 9.4
2019-Aug-19 04:17 280 9.4
2019-Aug-19 04:12 280 9.4
2019-Aug-19 04:07 280 9.4
2019-Aug-19 04:02 280 10.0
2019-Aug-19 03:57 280 10.0
2019-Aug-19 03:52 280 10.0
2019-Aug-19 03:47 280 10.0
2019-Aug-19 03:42 280 10.0
2019-Aug-19 03:37 280 10.0
2019-Aug-19 03:32 280 10.0
2019-Aug-19 03:27 280 10.0
2019-Aug-19 03:22 280 10.0
2019-Aug-19 03:17 280 10.0
2019-Aug-19 03:12 280 10.0
2019-Aug-19 03:07 280 10.0
2019-Aug-19 03:02 280 10.0
2019-Aug-19 02:57 280 10.0
2019-Aug-19 02:52 280 10.0
2019-Aug-19 02:47 280 10.6
2019-Aug-19 02:42 280 10.6
2019-Aug-19 02:37 280 10.6
2019-Aug-19 02:32 280 10.6
2019-Aug-19 02:27 280 10.6
2019-Aug-19 02:22 280 10.6
2019-Aug-19 02:17 280 10.6
2019-Aug-19 02:12 280 10.6
2019-Aug-19 02:07 280 10.6
2019-Aug-19 02:02 280 11.1
2019-Aug-19 01:57 280 11.1
2019-Aug-19 01:52 280 11.1
2019-Aug-19 01:47 280 11.1
2019-Aug-19 01:42 280 11.1
2019-Aug-19 01:37 280 11.1
2019-Aug-19 01:32 280 11.1
2019-Aug-19 01:27 280 11.1
2019-Aug-19 01:22 280 11.7
2019-Aug-19 01:17 280 11.7
2019-Aug-19 01:12 280 11.7
2019-Aug-19 01:07 280 11.7
2019-Aug-19 01:02 280 11.7
2019-Aug-19 00:57 280 11.7
2019-Aug-19 00:52 280 11.7
2019-Aug-19 00:47 280 11.7
2019-Aug-19 00:42 280 11.7
2019-Aug-19 00:37 280 12.2
2019-Aug-19 00:32 280 12.2
2019-Aug-19 00:27 280 12.2
2019-Aug-19 00:22 280 12.2
2019-Aug-19 00:17 280 12.8
2019-Aug-19 00:12 280 12.8
2019-Aug-19 00:07 280 12.8
2019-Aug-19 00:02 280 12.2
2019-Aug-18 23:57 280 12.2
2019-Aug-18 23:52 280 12.2
2019-Aug-18 23:47 280 12.2
2019-Aug-18 23:42 280 12.2
2019-Aug-18 23:37 280 12.2
2019-Aug-18 23:32 280 12.2
2019-Aug-18 23:27 280 12.2
2019-Aug-18 23:22 280 12.2
2019-Aug-18 23:17 280 12.2
2019-Aug-18 23:12 280 12.8
2019-Aug-18 23:07 280 12.8
2019-Aug-18 23:02 280 12.8
2019-Aug-18 22:57 280 12.8
2019-Aug-18 22:52 280 13.3
2019-Aug-18 22:47 280 13.3
2019-Aug-18 22:42 280 13.3
2019-Aug-18 22:37 280 13.9
2019-Aug-18 22:32 280 13.9
2019-Aug-18 22:27 280 13.9
2019-Aug-18 22:22 280 14.4
2019-Aug-18 22:17 280 14.4
2019-Aug-18 22:12 280 14.4
2019-Aug-18 22:07 280 14.4
2019-Aug-18 22:02 280 14.4
2019-Aug-18 21:57 280 15.0
2019-Aug-18 21:52 280 15.0
2019-Aug-18 21:47 280 15.0
2019-Aug-18 21:42 280 15.0
2019-Aug-18 21:37 280 15.6
2019-Aug-18 21:32 280 15.6
2019-Aug-18 21:27 280 15.6
2019-Aug-18 21:22 279 15.6
2019-Aug-18 21:17 279 15.6
2019-Aug-18 21:12 276 15.6
2019-Aug-18 21:07 276 16.1
2019-Aug-18 21:02 290 15.6
2019-Aug-18 20:57 290 16.1
2019-Aug-18 20:52 287 15.6
2019-Aug-18 20:47 287 16.1
2019-Aug-18 20:42 287 16.1
2019-Aug-18 20:37 287 16.1
2019-Aug-18 20:32 287 16.1
2019-Aug-18 20:27 287 16.1
2019-Aug-18 20:22 287 16.1
2019-Aug-18 20:17 287 16.7
2019-Aug-18 20:12 287 16.7
2019-Aug-18 20:07 287 16.7
2019-Aug-18 20:02 287 16.7
2019-Aug-18 19:57 287 16.7
2019-Aug-18 19:52 287 16.7
2019-Aug-18 19:47 287 17.2
2019-Aug-18 19:42 287 17.2
2019-Aug-18 19:37 287 17.2
2019-Aug-18 19:32 287 17.8
2019-Aug-18 19:27 269 17.8
2019-Aug-18 19:22 279 17.8
2019-Aug-18 19:17 279 17.8
2019-Aug-18 19:12 250 18.3
2019-Aug-18 19:07 277 18.3
2019-Aug-18 19:02 277 18.3
2019-Aug-18 18:57 266 18.3
2019-Aug-18 18:52 266 0 gusting 5 18.9
2019-Aug-18 18:47 271 18.9
2019-Aug-18 18:42 290 0 gusting 5 19.4
2019-Aug-18 18:37 271 0 gusting 5 19.4
2019-Aug-18 18:32 284 0 gusting 2 19.4
2019-Aug-18 18:27 277 19.4
2019-Aug-18 18:22 281 0 gusting 4 20.0
2019-Aug-18 18:17 280 0 gusting 4 20.0
2019-Aug-18 18:12 271 0 gusting 4 20.0
2019-Aug-18 18:07 232 20.0
2019-Aug-18 18:02 289 20.0
2019-Aug-18 17:57 236 20.0
2019-Aug-18 17:52 261 20.0
2019-Aug-18 17:47 288 20.0
2019-Aug-18 17:42 256 20.6
2019-Aug-18 17:37 263 0 gusting 4 20.6
2019-Aug-18 17:32 271 20.6
2019-Aug-18 17:27 267 20.6
2019-Aug-18 17:22 267 20.6
2019-Aug-18 17:17 264 0 gusting 4 21.1
2019-Aug-18 17:12 282 0 gusting 4 21.1
2019-Aug-18 17:07 281 0 gusting 4 21.7
2019-Aug-18 17:02 290 21.1
2019-Aug-18 16:57 282 21.1
2019-Aug-18 16:52 299 0 gusting 5 21.1
2019-Aug-18 16:47 296 0 gusting 5 21.1
2019-Aug-18 16:42 265 0 gusting 5 21.1
2019-Aug-18 16:37 264 0 gusting 5 21.7
2019-Aug-18 16:32 289 21.7
2019-Aug-18 16:27 289 21.7
2019-Aug-18 16:22 287 21.7
2019-Aug-18 16:17 261 21.1
2019-Aug-18 16:12 279 21.1
2019-Aug-18 16:07 281 0 gusting 3 21.7
2019-Aug-18 16:02 277 0 gusting 4 21.7
2019-Aug-18 15:57 279 0 gusting 4 21.7
2019-Aug-18 15:52 260 0 gusting 6 22.8
2019-Aug-18 15:47 272 0 gusting 6 22.8
2019-Aug-18 15:42 269 0 gusting 4 22.8
2019-Aug-18 15:37 287 22.8
2019-Aug-18 15:32 288 22.8
2019-Aug-18 15:27 241 23.3
2019-Aug-18 15:22 276 23.9
2019-Aug-18 15:17 284 23.9
2019-Aug-18 15:12 268 23.9
2019-Aug-18 15:07 268 24.4
2019-Aug-18 15:02 269 24.4
2019-Aug-18 14:57 236 0 gusting 6 24.4
2019-Aug-18 14:52 290 0 gusting 6 24.4
2019-Aug-18 14:47 236 0 gusting 6 23.9
2019-Aug-18 14:42 279 24.4
2019-Aug-18 14:37 267 24.4
2019-Aug-18 14:32 267 23.9
2019-Aug-18 14:27 290 23.3
2019-Aug-18 14:22 283 22.8
2019-Aug-18 14:17 269 0 gusting 6 22.8
2019-Aug-18 14:12 258 0 gusting 6 22.2
2019-Aug-18 14:07 300 23.3
2019-Aug-18 14:02 286 0 gusting 3 23.3